TimeEST,TemperatureF,Dew PointF,Humidity,Sea Level PressureIn,VisibilityMPH,Wind Direction,Wind SpeedMPH,Gust SpeedMPH,PrecipitationIn,Events,Conditions,WindDirDegrees,DateUTC
12:15 AM,32.0,24.8,75,30.21,10.0,WNW,12.7,17.3,N/A,,Clear,290,2013-01-04 05:15:00
12:35 AM,32.0,24.8,75,30.20,10.0,WNW,11.5,17.3,N/A,,Clear,290,2013-01-04 05:35:00
12:55 AM,30.2,24.8,80,30.20,10.0,WNW,10.4,-,N/A,,Scattered Clouds,290,2013-01-04 05:55:00
1:15 AM,30.2,24.8,80,30.21,10.0,WNW,11.5,16.1,N/A,,Scattered Clouds,300,2013-01-04 06:15:00
1:35 AM,30.2,24.8,80,30.22,10.0,WNW,10.4,19.6,N/A,,Scattered Clouds,290,2013-01-04 06:35:00
1:55 AM,30.2,24.8,80,30.22,10.0,WNW,9.2,17.3,N/A,,Clear,290,2013-01-04 06:55:00
2:15 AM,30.2,23.0,75,30.23,10.0,WNW,12.7,19.6,N/A,,Clear,290,2013-01-04 07:15:00
2:35 AM,30.2,23.0,75,30.23,10.0,WNW,10.4,19.6,N/A,,Clear,290,2013-01-04 07:35:00
2:55 AM,28.4,23.0,80,30.24,10.0,WNW,10.4,18.4,N/A,,Clear,300,2013-01-04 07:55:00
3:35 AM,28.4,23.0,80,30.24,10.0,West,10.4,17.3,N/A,,Clear,280,2013-01-04 08:35:00
3:55 AM,28.4,23.0,80,30.24,10.0,WNW,10.4,19.6,N/A,,Clear,290,2013-01-04 08:55:00
4:15 AM,28.4,23.0,80,30.24,10.0,WNW,11.5,18.4,N/A,,Scattered Clouds,290,2013-01-04 09:15:00
6:55 AM,26.6,21.2,80,30.23,10.0,West,10.4,19.6,N/A,,Clear,280,2013-01-04 11:55:00
7:15 AM,26.6,21.2,80,30.23,10.0,West,10.4,17.3,N/A,,Clear,280,2013-01-04 12:15:00
7:35 AM,26.6,21.2,80,30.24,10.0,WNW,10.4,18.4,N/A,,Clear,290,2013-01-04 12:35:00
8:15 AM,26.6,21.2,80,30.23,10.0,WNW,11.5,19.6,N/A,,Clear,290,2013-01-04 13:15:00
8:35 AM,28.4,21.2,74,30.23,10.0,WNW,12.7,21.9,N/A,,Clear,290,2013-01-04 13:35:00
8:55 AM,28.4,21.2,74,30.24,10.0,WNW,12.7,20.7,N/A,,Clear,290,2013-01-04 13:55:00
9:15 AM,28.4,23.0,80,30.24,10.0,West,10.4,20.7,N/A,,Clear,280,2013-01-04 14:15:00
9:35 AM,30.2,23.0,75,30.26,10.0,WNW,13.8,21.9,N/A,,Scattered Clouds,290,2013-01-04 14:35:00
9:55 AM,30.2,23.0,75,30.26,10.0,WNW,18.4,24.2,N/A,,Clear,290,2013-01-04 14:55:00
10:15 AM,30.2,23.0,75,30.26,10.0,WNW,18.4,26.5,N/A,,Clear,300,2013-01-04 15:15:00
10:35 AM,32.0,23.0,69,30.27,10.0,WNW,16.1,26.5,N/A,,Clear,300,2013-01-04 15:35:00
10:55 AM,32.0,23.0,69,30.27,10.0,WNW,13.8,27.6,N/A,,Clear,290,2013-01-04 15:55:00
11:15 AM,33.8,24.8,70,30.26,10.0,WNW,13.8,19.6,N/A,,Clear,300,2013-01-04 16:15:00
11:35 AM,33.8,24.8,70,30.26,10.0,WNW,10.4,19.6,N/A,,Clear,290,2013-01-04 16:35:00
11:55 AM,35.6,24.8,65,30.24,10.0,West,9.2,16.1,N/A,,Clear,270,2013-01-04 16:55:00
12:15 PM,35.6,24.8,65,30.24,10.0,West,10.4,17.3,N/A,,Clear,280,2013-01-04 17:15:00
12:35 PM,35.6,24.8,65,30.22,10.0,West,10.4,17.3,N/A,,Clear,270,2013-01-04 17:35:00
12:55 PM,37.4,24.8,60,30.21,10.0,West,10.4,19.6,N/A,,Clear,280,2013-01-04 17:55:00
1:15 PM,35.6,24.8,65,30.21,10.0,WNW,10.4,18.4,N/A,,Clear,290,2013-01-04 18:15:00
1:35 PM,35.6,24.8,65,30.20,10.0,WNW,10.4,21.9,N/A,,Clear,290,2013-01-04 18:35:00
1:55 PM,37.4,24.8,60,30.20,10.0,WNW,11.5,19.6,N/A,,Clear,290,2013-01-04 18:55:00
2:15 PM,35.6,23.0,60,30.19,10.0,WNW,15.0,21.9,N/A,,Clear,290,2013-01-04 19:15:00
2:35 PM,37.4,24.8,60,30.19,10.0,West,11.5,17.3,N/A,,Clear,280,2013-01-04 19:35:00
2:55 PM,35.6,23.0,60,30.19,10.0,WNW,15.0,21.9,N/A,,Clear,300,2013-01-04 19:55:00
3:15 PM,35.6,23.0,60,30.21,10.0,WNW,15.0,25.3,N/A,,Scattered Clouds,300,2013-01-04 20:15:00
3:35 PM,33.8,23.0,65,30.22,10.0,WNW,12.7,23.0,N/A,,Scattered Clouds,290,2013-01-04 20:35:00
3:55 PM,33.8,23.0,65,30.23,10.0,West,15.0,23.0,N/A,,Scattered Clouds,280,2013-01-04 20:55:00
4:15 PM,33.8,23.0,65,30.21,10.0,West,6.9,26.5,N/A,,Clear,280,2013-01-04 21:15:00
4:35 PM,33.8,23.0,65,30.23,10.0,WNW,8.1,18.4,N/A,,Clear,290,2013-01-04 21:35:00
4:55 PM,33.8,23.0,65,30.22,10.0,WNW,12.7,21.9,N/A,,Clear,290,2013-01-04 21:55:00
5:15 PM,32.0,23.0,69,30.23,10.0,WNW,18.4,24.2,N/A,,Clear,300,2013-01-04 22:15:00
5:35 PM,32.0,24.8,75,30.23,10.0,WNW,11.5,20.7,N/A,,Scattered Clouds,290,2013-01-04 22:35:00
5:55 PM,30.2,24.8,80,30.24,10.0,West,11.5,19.6,N/A,,Clear,280,2013-01-04 22:55:00
6:35 PM,30.2,24.8,80,30.25,10.0,WNW,10.4,25.3,N/A,,Scattered Clouds,290,2013-01-04 23:35:00
6:55 PM,32.0,24.8,75,30.27,10.0,WNW,11.5,18.4,N/A,,Mostly Cloudy,290,2013-01-04 23:55:00
7:15 PM,32.0,24.8,75,30.27,10.0,WNW,8.1,17.3,N/A,,Overcast,290,2013-01-05 00:15:00
7:35 PM,32.0,24.8,75,30.29,10.0,WNW,10.4,21.9,N/A,,Overcast,300,2013-01-05 00:35:00
7:55 PM,32.0,24.8,75,30.27,10.0,WNW,15.0,23.0,N/A,,Overcast,290,2013-01-05 00:55:00
8:15 PM,32.0,24.8,75,30.29,10.0,WNW,13.8,20.7,N/A,,Mostly Cloudy,290,2013-01-05 01:15:00
8:35 PM,32.0,24.8,75,30.27,10.0,West,15.0,23.0,N/A,,Mostly Cloudy,280,2013-01-05 01:35:00
8:55 PM,32.0,24.8,75,30.26,10.0,West,12.7,20.7,N/A,,Clear,280,2013-01-05 01:55:00
9:15 PM,30.2,24.8,80,30.26,10.0,WNW,10.4,21.9,N/A,,Clear,290,2013-01-05 02:15:00
9:35 PM,30.2,24.8,80,30.26,10.0,West,9.2,17.3,N/A,,Clear,280,2013-01-05 02:35:00
9:55 PM,32.0,24.8,75,30.26,10.0,WNW,15.0,20.7,N/A,,Clear,290,2013-01-05 02:55:00
10:15 PM,30.2,24.8,80,30.26,10.0,WNW,13.8,20.7,N/A,,Clear,290,2013-01-05 03:15:00
10:35 PM,30.2,24.8,80,30.26,10.0,West,10.4,19.6,N/A,,Clear,280,2013-01-05 03:35:00
10:55 PM,30.2,24.8,80,30.27,10.0,West,9.2,18.4,N/A,,Clear,280,2013-01-05 03:55:00
11:15 PM,30.2,24.8,80,30.27,10.0,West,8.1,-,N/A,,Clear,270,2013-01-05 04:15:00
11:35 PM,30.2,24.8,80,30.28,10.0,West,8.1,-,N/A,,Clear,280,2013-01-05 04:35:00
11:55 PM,30.2,24.8,80,30.28,10.0,West,10.4,17.3,N/A,,Scattered Clouds,270,2013-01-05 04:55:00